{"data":{"norad_id":63603,"intl_designator":"2025-078E","name":"SHIYAN-27 OBJECT E","alt_names":[],"object_type":"PAYLOAD","status":"ACTIVE","operator":null,"country":"PRC","launch_date":"2025-04-18","launch_site_code":"TAISC","launch_vehicle":null,"mission":null,"orbit_class":"UNKNOWN","rcs_meters":null,"size_class":null,"mass_kg":null,"dimensions":null,"purposes":[],"wikipedia_slug":null,"has_3d_model":false,"image_url":null,"decayed_at":null,"tle_current":{"epoch":"2026-05-25T04:43:42.115872Z","epoch_age_seconds":68775,"freshness":"FRESH","line1":"1 63603U 25078E   26145.19701523  .00000010  00000+0  76438-4 0  9998","line2":"2 63603  99.6895 152.6947 0001200  88.4737 271.6539 13.57239004 54411","mean_motion":13.57239004,"eccentricity":0.00012,"inclination_deg":99.6895,"raan_deg":152.6947,"arg_perigee_deg":88.4737,"mean_anomaly_deg":271.6539,"bstar":7.6438e-5,"rev_number":5441,"period_min":106.09774665745,"perigee_km":1044.8523078538,"apogee_km":1046.6340390954,"semimajor_km":7423.8801734746,"source":"CELESTRAK","updated_at":"2026-05-25T13:38:03.846043Z"}}}